Location: Catenanuova
(37.5690°N, 14.6870°E)
Time: 14:48:22
(UTC+02:00)

Hubble Space Telescope - Visible Passes

Search period start: 23 May 2024 00:00
Search period end: 02 June 2024 00:00
Orbit: 511 x 515 km, 28.5° (Epoch: 22 May)

Date Brightness Start Highest point End Pass type
(mag) Time Alt. Az. Time Alt. Az. Time Alt. Az.
26 May 2.6 21:47:46 10° SSW 21:49:18 16° SSW 21:49:18 16° SSW visible
27 May 2.2 21:28:50 10° SW 21:31:40 19° S 21:32:01 18° SSE visible
28 May 2.2 21:09:54 10° SW 21:12:49 20° S 21:14:31 15° SE visible
29 May 2.2 20:50:58 10° SW 20:53:57 20° S 20:56:54 10° SE visible
29 May 3.0 22:31:03 10° SW 22:31:44 13° SW 22:31:44 13° SW visible
30 May 2.6 22:12:14 10° SW 22:13:59 17° SSW 22:13:59 17° SSW visible
31 May 2.4 21:53:26 10° SW 21:56:09 18° SSW 21:56:09 18° SSW visible
01 Jun 2.4 21:34:39 10° SW 21:37:20 18° S 21:38:16 16° S visible
